Regional Weather Roundup
Issued by NWS Green Bay, WI

Home | Current Version | Previous Version | Graphics & Text | Print | Product List | Glossary Off
Versions: 1 2 3 4 5 6 7 8 9 10 11 12 13 14 15 16 17 18 19 20 21 22 23 24 25 26 27 28 29 30 31 32 33 34 35 36 37 38 39 40 41 42 43 44 45 46 47 48 49 50

000
ASUS43 KGRB 292011
RWRGRB

NORTH-CENTRAL AND NORTHEAST WISCONSIN REGIONAL WEATHER ROUNDUP
NATIONAL WEATHER SERVICE GREEN BAY WI
300 PM CDT MON AUG 29 2016

WIZ005-009-010>012-018-019-292100-
NORTH CENTRAL WISCONSIN

CITY           SKY/WX    TMP DP  RH WIND       PRES   REMARKS
IRONWOOD       SUNNY     83  64  52 W8        30.15F
MANITOWISH WTR CLOUDY    82  66  59 SW10      30.18S
ARBOR VITAE    CLOUDY    82  70  65 SW6       30.19S
EAGLE RIVER    SUNNY     82  66  58 W9        30.18S
LAND O LAKES   SUNNY     82  64  54 SW7       30.20S
RHINELANDER    CLOUDY    84  70  62 W7        30.20S
PHILLIPS       SUNNY     82  71  68 SW7       30.16F
ANTIGO         CLOUDY    78  70  75 SW10      30.20F
TOMAHAWK       CLOUDY    79  69  71 S3        30.19R
MERRILL        CLOUDY    79  70  74 S9        30.19F
$$

WIZ013-073-292100-
NORTHEAST WISCONSIN

CITY           SKY/WX    TMP DP  RH WIND       PRES   REMARKS
IRON MOUNTAIN  CLOUDY    83  66  56 SW5       30.17F
MARINETTE      CLOUDY   N/A N/A N/A SW12      30.18F
OCONTO         CLOUDY    82  70  67 S9        30.17S
$$

WIZ017-030-035>037-045-292100-
CENTRAL WISCONSIN

CITY           SKY/WX    TMP DP  RH WIND       PRES   REMARKS
MEDFORD        CLOUDY    79  73  80 SW9       30.20S
WAUSAU         MOSUNNY   82  69  64 S9        30.18F
MOSINEE        NOT AVBL
MARSHFIELD     PTSUNNY   82  70  66 S12       30.19F
WISC RAPIDS    PTSUNNY   84  69  60 SW16G23   30.19F
STEVENS POINT  PTSUNNY   82  68  62 CALM      30.19F
WAUPACA        MOSUNNY   86  69  56 S13       30.18F HX  90
SHAWANO        PTSUNNY   85  70  62 SW9       30.18F
CLINTONVILLE   MOSUNNY   81  68  65 S7        30.18F
WAUTOMA        CLOUDY    83  72  69 S9        30.19F
$$

WIZ038-039-048-051-292100-
FOX VALLEY

CITY           SKY/WX    TMP DP  RH WIND       PRES   REMARKS
NWS GREEN BAY  MOSUNNY   81  71  71 S9G20     30.18F
APPLETON       PTSUNNY   82  66  57 S12       30.18F
OSHKOSH        MOSUNNY   84  70  62 S10       30.19F
FOND DU LAC    MOSUNNY   83  70  64 S8        30.20F
$$

WIZ022-050-052-292100-
EAST CENTRAL WISCONSIN

CITY           SKY/WX    TMP DP  RH WIND       PRES   REMARKS
EPHRAIM        FAIR      79  68  69 S5        30.18F
WASHINGTON ISL NOT AVBL
STURGEON BAY   CLOUDY    79  69  71 S10       30.19F
MANITOWOC      SUNNY     79  62  56 S10       30.21F
SHEBOYGAN      SUNNY     81  65  58 S7        30.22F
$$

LMZ563-521-522-541>543-292100-
LAKESHORE

STATION/POSITION TIME  TEMP    WIND        PRES    VSBY  WAVE
                       AIR SEA DIR/SP/G                  HT/PER
                 (UTC) (F)     (DEG/KT/KT) (MB)    (MI)  (FT/S)
SHEBOYGAN LKSHOR 2000   70     160/ 10/ 11 1022.7F
KEWAUNEE LKSHORE 1900   67     180/  9/ 10 1023.3F
NORTHPORT PIER   1900   74     160/  8/ 13 1022.4F
N MID LAKE BUOY  1950   71 71  200/ 12/ 12 1022.0F         1/ 3
SISTER BAY LKSHO 1922   81     190/ 13/ 15   N/A
CHAMBERS ISLAND  1900   78     150/  7/ 12 1022.0F
MENOMINEE LKSHOR 1900   74     140/ 10/ 11 1021.6F
$$



USA.gov is the U.S. government's official web portal to all federal, state and local government web resources and services.